sat.trackr.live / text

‹ back to catalog

STARLINK-6060

NORAD 56794 · 2023-078AD

PAYLOAD ACTIVE UNKNOWN

§ Identity

Operator
Country
US
Launch date
2023-05-31
Launch site
AFWTR
Launch vehicle
Mass (kg)
RCS (m²)

Purposes: comms

External: N2YO · Heavens-Above · Gunter

§ Orbital elements

Epoch: 2026-09-20T22:00:03.000096Z

Period
95.66 min
Inclination
70.0004°
Eccentricity
0.0004484
Mean motion
15.05401866 rev/d
Perigee alt
547.2 km
Apogee alt
553.4 km
Semi-major
6,928.4 km
B*
2.7745e-4
RAAN
192.1276°
Arg perigee
240.6362°
Mean anomaly
310.7424°
Rev number
562

§ Raw data

STARLINK-60601 56794U 23078AD  26263.91670139  .00003891  00000+0  27745-3 0  99942 56794  70.0004 192.1276 0004484 240.6362 310.7424 15.05401866  5625

JSON: /api/v1/satellites/56794 · /tle

For live sub-satellite position, see the globe view (requires WebGL).

§ Visibility from observer

Set your observer location to see the next 7 days of passes ≥ 10°. The values pass through the URL so the page stays shareable.

No JS? Fill the form by hand. The geolocation button needs JavaScript.